Flag for U.S.A. Weather past 2 weeks in Philadelphia, Pennsylvania, U.S.A.

Now
86 °F

Scattered clouds.


Feels Like: 84 °F
Forecast: 62 / 87 °F
Wind: 17 mph from Southwest

Location: Philadelphia International Airport

Current Time: May 25, 2015 at 2:47:44 PM

Latest Report: May 25, 2015 at 1:54 PM


Visibility: 10 mi

Pressure: 30.22 "Hg

Humidity: 33%

Dew point: 54 °F

Location of PhiladelphiaLocation

Historic Weather in Philadelphia — Graph

°F

Philadelphia temperature yesterday

Maximum temperature yesterday: 81 °F (at 3:54 PM)
Minimum temperature yesterday: 53 °F (at 4:54 AM)
Average temperature yesterday: 68 °F

Past Weeks' High & Low Weather Summary

 TemperatureHumidityPressure
High86 °F (May 12, 1:54 PM)93% (May 18, 11:54 PM)30.45 "Hg (May 18, 11:54 PM)
Low50 °F (May 14, 4:54 AM)18% (May 22, 11:54 PM)29.80 "Hg (May 12, 6:54 PM)
Average68 °F57%30.12 "Hg
* Reported May 10 1:54 PM — May 25 1:54 PM, Philadelphia, Weather by CustomWeather, © 2015

Note: Actual official high and low records may vary slightly from our data, if they occured in-between our weather recording intervals... More about our weather records

Advertising

Philadelphia weather history for previous 24 hours

 ConditionsComfort  
Time TempWeatherWind HumidityBarometerVisibility
1:54 PM
Mon, May 25
86 °FScattered clouds.17 mph33%30.22 "Hg10 mi
12:54 PM85 °FScattered clouds.18 mph37%30.24 "Hg10 mi
11:54 AM82 °FScattered clouds.14 mph43%30.25 "Hg10 mi
10:54 AM79 °FScattered clouds.13 mph48%30.27 "Hg10 mi
9:54 AM76 °FPassing clouds.12 mph54%30.28 "Hg10 mi
8:54 AM73 °FScattered clouds.12 mph62%30.29 "Hg10 mi
7:54 AM69 °FScattered clouds.8 mph70%30.28 "Hg10 mi
6:54 AM65 °FScattered clouds.6 mph78%30.27 "Hg10 mi
5:54 AM65 °FPartly cloudy.6 mph76%30.27 "Hg10 mi
4:54 AM64 °FMostly cloudy.6 mph75%30.27 "Hg10 mi
3:54 AM65 °FMostly cloudy.6 mph73%30.27 "Hg10 mi
2:54 AM65 °FMostly cloudy.3 mph73%30.26 "Hg10 mi
1:54 AM65 °FPassing clouds.6 mph73%30.27 "Hg10 mi
12:54 AM66 °FMostly cloudy.7 mph70%30.28 "Hg10 mi
11:54 PM
Sun, May 24
66 °FPartly cloudy.6 mph68%30.28 "Hg10 mi
10:54 PM67 °FPassing clouds.5 mph63%30.28 "Hg10 mi
9:54 PM69 °FPartly cloudy.7 mph59%30.28 "Hg10 mi
8:54 PM73 °FBroken clouds.9 mph51%30.26 "Hg10 mi
7:54 PM77 °FScattered clouds.9 mph28%30.26 "Hg10 mi
6:54 PM79 °FPassing clouds.7 mph25%30.25 "Hg10 mi
5:54 PM81 °FPassing clouds.14 mph25%30.25 "Hg10 mi
4:54 PM81 °FPassing clouds.12 mph26%30.26 "Hg10 mi
3:54 PM81 °FScattered clouds.13 mph29%30.27 "Hg10 mi
2:54 PM78 °FScattered clouds.13 mph36%30.30 "Hg10 mi
Weather by CustomWeather, © 2015

See weather overviewHow to use our weather pages